Meeker, CO

12:49 AM MDT on April 22, 2018 (GMT -0600)
Meeker

Weather History for KEEO - January, 2013

Change the Weather History Date:

Tuesday, January 15, 2013

  Actual Average Record
Temperature  
Mean Temperature -9 °F 20 °F  
Max Temperature 10 °F 33 °F 51 °F (2000)
Min Temperature -28 °F 7 °F -28 °F (2013)
Degree Days  
Heating Degree Days 74 45  
Month to date heating degree days 953 678  
Since 1 July heating degree days 3984 3967  
Cooling Degree Days 0 0  
Month to date cooling degree days 0 0  
Year to date cooling degree days 0 0  
Moisture  
Dew Point -13 °F    
Average Humidity 69    
Maximum Humidity 83    
Minimum Humidity 55    
Precipitation  
Precipitation 0.00 in 0.03 in 0.16 in (2016)
Month to date precipitation 0.16 0.49  
Year to date precipitation 0.16 0.49  
Sea Level Pressure  
Sea Level Pressure 30.72 in    
Wind  
Wind Speed 1 mph (NE)    
Max Wind Speed 6 mph    
Max Gust Speed 7 mph    
Visibility 10 miles    
Events Snow    
T = Trace of Precipitation, MM = Missing Value Source: NWS Daily Summary

Daily Weather History Graph

Daily Weather History Graph

Search for Another Location

Airport or City:

Astronomy

Jan. 15, 2013 Rise Set
Actual Time 7:31 AM MST 5:11 PM MST
Civil Twilight 7:01 AM MST 5:40 PM MST
Nautical Twilight 6:28 AM MST 6:14 PM MST
Astronomical Twilight 5:55 AM MST 6:46 PM MST
Moon 9:38 AM MST (1/15) 10:03 PM MST (1/15)
Length of Visible Light 10h 39m
Length of Day
9h 39m
Waxing Crescent, 20% of the Moon is Illuminated
Jan 15
Waxing Crescent
Jan 18
First Quarter
Jan 26
Full
Feb 3
Last Quarter
Feb 10
New

Hourly Weather History & Observations

Time (MST) Temp. Windchill Dew Point Humidity Pressure Visibility Wind Dir Wind Speed Gust Speed Precip Events Conditions
12:53 AM -23.1 °F - -27.9 °F 78% 30.65 in 10.0 mi Calm Calm - N/A   Clear
1:53 AM -25.1 °F -36.5 °F -32.1 °F 70% 30.66 in 10.0 mi NE 3.5 mph - N/A   Clear
2:53 AM -27.0 °F - -31.0 °F 81% 30.70 in 10.0 mi Calm Calm - N/A   Clear
3:53 AM -24.0 °F - -29.0 °F 77% 30.70 in 10.0 mi Calm Calm - N/A   Mostly Cloudy
4:53 AM -22.0 °F - -27.9 °F 74% 30.71 in 10.0 mi Calm Calm - N/A   Overcast
5:53 AM -18.0 °F -28.5 °F -24.0 °F 74% 30.75 in 10.0 mi NNE 3.5 mph - N/A   Overcast
6:53 AM -14.1 °F - -18.9 °F 79% 30.76 in 10.0 mi Calm Calm - N/A   Overcast
7:53 AM -13.0 °F - -18.0 °F 78% 30.79 in 10.0 mi Calm Calm - N/A   Overcast
8:53 AM -8.0 °F - -13.0 °F 79% 30.77 in 10.0 mi Calm Calm - N/A   Overcast
9:53 AM -4.0 °F - -11.9 °F 69% 30.78 in 10.0 mi Calm Calm - N/A   Overcast
10:53 AM -0.9 °F - -11.0 °F 62% 30.75 in 10.0 mi Calm Calm - 0.00 in Snow Light Snow
11:53 AM -0.0 °F - -9.0 °F 66% 30.75 in 10.0 mi Calm Calm - 0.00 in   Overcast
12:53 PM 3.9 °F -5.3 °F -7.1 °F 60% 30.70 in 10.0 mi NE 4.6 mph - N/A   Overcast
1:53 PM 7.0 °F - -5.1 °F 58% 30.69 in 10.0 mi Calm Calm - N/A   Overcast
2:53 PM 8.1 °F - -5.1 °F 55% 30.70 in 10.0 mi Calm Calm - N/A   Overcast
3:53 PM 9.0 °F - -2.9 °F 59% 30.70 in 10.0 mi Calm Calm - N/A   Overcast
4:53 PM 8.1 °F - -4.0 °F 58% 30.71 in 10.0 mi Calm Calm - N/A   Overcast
5:53 PM 7.0 °F 0.1 °F -0.9 °F 70% 30.71 in 10.0 mi NNE 3.5 mph - N/A   Overcast
6:53 PM 7.0 °F - -2.0 °F 67% 30.70 in 10.0 mi Calm Calm - N/A   Overcast
7:53 PM 3.9 °F - -2.9 °F 73% 30.73 in 10.0 mi Calm Calm - N/A   Overcast
8:53 PM -0.0 °F - -6.0 °F 76% 30.74 in 10.0 mi Calm Calm - N/A   Overcast
9:53 PM 5.0 °F - -2.9 °F 70% 30.70 in 10.0 mi Calm Calm - N/A   Overcast
10:53 PM 6.1 °F -2.8 °F -2.0 °F 69% 30.69 in 10.0 mi SE 4.6 mph - N/A   Overcast
11:53 PM -0.9 °F - -7.1 °F 75% 30.75 in 10.0 mi Calm Calm - N/A   Scattered Clouds